This demonstration page uses our WeatherBlox Daily Observations layout. Learn more.

Hourly Observations for December 19, 2018

Temp ( °F °C ) Dew Point ( °F °C ) Humidity (%) Winds ( mph kmh ) Pressure ( in mb ) Visibility ( mi km ) Precip ( " mm )
12:15 am 00:15 Clear 37 3 32 0.1 81 81 WSW 7 11 29.83 1010 10 16.0934 0 0
12:35 am 00:35 Clear 38 3.1 32 0.1 81 81 W 9 15 29.83 1010 10 16.0934 0 0
12:55 am 00:55 Clear 37 2.9 32 0 81 81 WSW 9 15 29.83 1010 10 16.0934 0 0
1:15 am 01:15 Clear 37 3 32 0 81 81 WSW 5 7 29.83 1010 10 16.0934 0 0
1:35 am 01:35 Clear 36 2.3 32 -0.2 84 84 WSW 7 11 29.83 1010 10 16.0934 0 0
1:55 am 01:55 Clear 36 2.2 31 -0.4 83 83 WSW 7 11 29.83 1010 10 16.0934 0 0
2:15 am 02:15 Clear 35 1.5 31 -0.6 86 86 WSW 8 13 29.83 1010 10 16.0934 0 0
2:35 am 02:35 Clear 35 1.5 31 -0.7 85 85 WSW 10 17 29.8 1009 10 16.0934 0 0
2:55 am 02:55 Clear 37 2.5 31 -0.7 80 80 W 12 19 29.8 1009 10 16.0934 0 0
3:15 am 03:15 Clear 37 2.5 31 -0.8 79 79 W 13 20 29.8 1009 10 16.0934 0 0
3:35 am 03:35 Clear 37 2.7 31 -0.5 80 80 W 13 20 29.8 1009 10 16.0934 0 0
3:55 am 03:55 Clear 37 2.6 31 -0.7 79 79 W 13 20 29.8 1009 10 16.0934 0 0
4:15 am 04:15 Clear 36 2.2 30 -0.9 80 80 W 13 20 29.8 1009 10 16.0934 0 0
4:35 am 04:35 Clear 36 2.1 30 -1 80 80 W 12 19 29.77 1008 10 16.0934 0 0
4:55 am 04:55 Clear 35 1.7 30 -1.2 81 81 W 12 19 29.77 1008 10 16.0934 0 0
5:15 am 05:15 Clear 35 1.5 30 -1.3 82 82 W 10 17 29.77 1008 10 16.0934 0 0
5:35 am 05:35 Clear 35 1.9 30 -1.3 80 80 W 12 19 29.77 1008 10 16.0934 0 0
5:55 am 05:55 Clear 36 2 30 -1.3 79 79 WSW 12 19 29.77 1008 10 16.0934 0 0
6:15 am 06:15 Clear 34 1.1 29 -1.7 82 82 WSW 7 11 29.77 1008 10 16.0934 0 0
6:35 am 06:35 Clear 34 0.9 29 -1.6 84 84 W 14 22 29.77 1008 10 16.0934 0 0
6:55 am 06:55 Clear 33 0.5 29 -1.7 85 85 W 12 19 29.74 1007 10 16.0934 0 0
7:15 am 07:15 Clear 33 0.8 29 -1.7 84 84 W 12 19 29.77 1008 10 16.0934 0 0
7:35 am 07:35 Clear 33 0.7 29 -1.5 85 85 W 13 20 29.77 1008 10 16.0934 0 0
7:55 am 07:55 Clear 36 2 30 -1 81 81 WNW 12 19 29.77 1008 10 16.0934 0 0
8:15 am 08:15 Sunny 37 2.6 31 -0.3 81 81 NW 12 19 29.77 1008 10 16.0934 0 0
8:35 am 08:35 Mostly Cloudy 39 3.8 32 0 77 77 NW 10 17 29.74 1007 10 16.0934 0 0
8:55 am 08:55 Cloudy 39 3.7 32 0.1 78 78 NW 12 19 29.77 1008 10 16.0934 0 0
9:15 am 09:15 Cloudy 39 3.9 33 0.5 79 79 WNW 12 19 29.77 1008 10 16.0934 0 0
9:35 am 09:35 Cloudy 39 4.1 34 1.1 81 81 WNW 10 17 29.8 1009 10 16.0934 0 0
9:55 am 09:55 Cloudy with Drizzle 41 4.8 36 2.1 83 83 WNW 15 24 29.8 1009 10 16.0934 0 0
10:15 am 10:15 Cloudy with Light Rain 40 4.7 38 3.3 91 91 NW 15 24 29.83 1010 10 16.0934 0 0
10:35 am 10:35 Cloudy with Light Drizzle 41 5.1 39 4 93 93 NW 14 22 29.83 1010 10 16.0934 0 0
10:55 am 10:55 Cloudy with Rain 41 5.1 39 4 93 93 NW 14 22 29.83 1010 10 16.0934 0.01 0.254
11:15 am 11:15 Cloudy with Light Drizzle 41 5.2 39 4 92 92 NW 9 15 29.83 1010 10 16.0934 0 0
11:35 am 11:35 Cloudy 43 6.1 40 4.6 90 90 NW 13 20 29.8 1009 10 16.0934 0 0
11:55 am 11:55 Cloudy 44 6.7 39 4 83 83 NW 15 24 29.8 1009 10 16.0934 0 0
12:15 pm 12:15 Mostly Cloudy 45 7.1 40 4.3 83 83 NW 14 22 29.77 1008 10 16.0934 0 0
12:35 pm 12:35 Partly Cloudy 46 7.5 40 4.5 81 81 NW 13 20 29.77 1008 10 16.0934 0 0
12:55 pm 12:55 Sunny 46 8 39 4 76 76 NW 15 24 29.74 1007 10 16.0934 0 0
1:15 pm 13:15 Sunny 47 8.2 39 3.9 75 75 NW 14 22 29.74 1007 10 16.0934 0 0
1:35 pm 13:35 Sunny 48 8.7 39 3.8 72 72 NW 15 24 29.77 1008 10 16.0934 0 0
1:55 pm 13:55 Partly Cloudy 49 9.2 37 3 65 65 NNW 17 28 29.77 1008 10 16.0934 0 0
2:15 pm 14:15 Mostly Cloudy 49 9.3 37 2.5 63 63 NNW 13 20 29.77 1008 10 16.0934 0 0
2:35 pm 14:35 Partly Cloudy 50 10 38 3.4 64 64 NNW 9 15 29.77 1008 10 16.0934 0 0
2:55 pm 14:55 Sunny 51 10.5 35 1.5 54 54 NNW 20 31 29.74 1007 10 16.0934 0 0
3:15 pm 15:15 Sunny 50 9.8 33 0.6 53 53 NNW 20 31 29.8 1009 10 16.0934 0 0
3:35 pm 15:35 Sunny 51 10.4 33 0.7 51 51 NNW 18 30 29.8 1009 10 16.0934 0 0
3:55 pm 15:55 Sunny 49 9.6 33 0.7 54 54 NNW 12 19 29.8 1009 10 16.0934 0 0
4:15 pm 16:15 Sunny 49 9.3 34 1.3 58 58 NNW 8 13 29.8 1009 10 16.0934 0 0
4:35 pm 16:35 Sunny 47 8.6 35 1.5 61 61 NW 10 17 29.8 1009 10 16.0934 0 0
4:55 pm 16:55 Sunny 46 7.9 33 0.6 60 60 NW 10 17 29.8 1009 10 16.0934 0 0
5:15 pm 17:15 Clear 42 5.5 33 0.4 70 70 NW 8 13 29.85 1011 10 16.0934 0 0
5:35 pm 17:35 Clear 40 4.2 32 0 74 74 NW 7 11 29.85 1011 10 16.0934 0 0
5:55 pm 17:55 Clear 38 3.6 32 -0.1 77 77 WNW 8 13 29.88 1012 10 16.0934 0 0
6:15 pm 18:15 Clear 38 3.5 31 -0.5 75 75 WNW 6 9 29.88 1012 10 16.0934 0 0
6:35 pm 18:35 Clear 36 2.3 30 -1 79 79 WNW 6 9 29.88 1012 10 16.0934 0 0
6:55 pm 18:55 Clear 37 2.9 31 -0.6 78 78 WNW 6 9 29.88 1012 10 16.0934 0 0
7:15 pm 19:15 Clear 38 3.2 31 -0.6 76 76 WNW 9 15 29.88 1012 10 16.0934 0 0
7:35 pm 19:35 Clear 38 3.2 31 -0.7 76 76 WNW 10 17 29.91 1013 10 16.0934 0 0
7:55 pm 19:55 Clear 36 2.2 30 -1 80 80 WNW 7 11 29.91 1013 10 16.0934 0 0
8:15 pm 20:15 Clear 37 2.9 31 -0.8 77 77 WNW 10 17 29.94 1014 10 16.0934 0 0
8:35 pm 20:35 Clear 35 1.5 30 -1.1 83 83 NW 9 15 29.97 1015 10 16.0934 0 0
8:55 pm 20:55 Clear 39 3.7 30 -0.9 72 72 NW 14 22 29.94 1014 10 16.0934 0 0
9:15 pm 21:15 Clear 40 4.5 30 -1.2 67 67 NNW 16 26 29.94 1014 10 16.0934 0 0
9:35 pm 21:35 Clear 39 4 30 -1.3 69 69 NNW 14 22 29.97 1015 10 16.0934 0 0
9:55 pm 21:55 Clear 38 3.5 30 -1.2 72 72 NNW 15 24 29.97 1015 10 16.0934 0 0
10:15 pm 22:15 Clear 38 3.2 30 -1.3 73 73 NW 15 24 29.97 1015 10 16.0934 0 0
10:35 pm 22:35 Clear 37 3 30 -1.3 74 74 NW 15 24 30 1016 10 16.0934 0 0
10:55 pm 22:55 Clear 36 2.1 30 -1.3 78 78 NW 12 19 30.03 1017 10 16.0934 0 0
11:15 pm 23:15 Clear 37 3 30 -1.2 74 74 NW 15 24 30 1016 10 16.0934 0 0
11:35 pm 23:35 Clear 36 2.4 29 -1.5 76 76 NW 13 20 30 1016 10 16.0934 0 0
11:55 pm 23:55 Clear 36 2.4 29 -1.5 76 76 NW 12 19 30 1016 10 16.0934 0 0

Powered by AerisWeather